SCP
5 6 6 5 5 6 7 7 6 6 5 5 4 4 3 2 2 2 2 2 2 2 2 3 3 3 3 3 4 4 4 4 4 4 4 4 4 4 4 4 4 4 4
5 5 6 6 6 6 6 6 5 5 5 4 4 4 3 3 2 2 2 2 2 2 2 2 3 3 3 3 3 4 4 4 4 5 5 5 4 4 4 4 4 4 5
5 5 6 6 6 6 5 4 4 4 4 4 4 3 3 3 2 2 2 1 1 1 1 2 2 2 3 3 3 3 3 3 4 4 5 5 5 4 4 4 3 4 5
5 5 6 7 7 6 5 3 3 3 4 4 4 3 3 2 3 2 2 2 1 1 1 1 2 2 2 2 2 2 3 3 3 4 4 4 4 4 4 4 3 4 4
5 6 6 7 7 6 5 5 4 5 5 5 5 4 3 3 3 3 2 2 1 1 1 1 1 1 2 2 2 2 2 3 3 3 3 4 4 4 4 4 3 4 3
4 4 5 5 5 5 6 6 6 6 6 5 5 4 4 3 3 3 2 2 1 1 1 1 1 1 1 1 1 1 2 2 2 3 3 3 4 4 4 4 3 3 3
2 2 3 3 3 4 4 5 6 6 6 5 5 5 4 4 4 3 2 2 1 1 1 1 1 1 1 1 1 1 1 2 2 2 2 3 3 4 4 4 3 3 3
1 2 2 2 2 2 3 3 4 6 6 6 5 5 5 5 4 4 3 2 2 1 2 2 1 1 0 0 1 1 1 1 1 2 2 2 3 3 4 4 3 2 2
1 1 2 2 2 2 2 3 4 5 6 6 6 6 6 5 5 4 4 4 3 3 2 2 2 1 1 1 1 1 1 1 1 1 1 2 2 3 4 3 3 2 2
1 1 2 2 2 2 2 3 3 4 5 6 6 6 6 6 5 5 5 5 5 4 3 3 2 1 1 1 1 1 1 1 1 1 1 1 2 3 4 4 3 3 3
1 1 2 2 2 2 2 3 3 4 5 5 5 5 5 5 5 5 5 5 5 5 4 3 3 2 2 1 1 0 0 1 1 1 1 1 2 3 4 4 3 3 3
1 1 1 1 1 1 2 2 3 3 4 4 4 4 4 5 4 4 4 5 5 5 5 4 3 3 2 2 1 0 0 1 1 1 1 1 1 2 3 4 3 3 3
0 0 0 0 0 1 1 1 1 2 3 3 4 4 5 5 4 4 4 4 4 4 4 4 4 4 3 2 1 0 0 0 0 1 1 1 1 2 2 3 3 3 3
0 0 0 0 0 0 0 0 0 1 1 1 2 3 4 5 4 3 3 3 3 4 4 4 4 4 3 2 1 0 0 0 0 0 0 1 1 1 2 2 3 3 3
0 0 0 0 0 0 0 0 0 0 0 0 1 2 2 3 3 2 2 3 3 3 3 3 3 4 3 1 1 0 0 0 0 0 0 0 0 1 1 1 2 2 3
0 0 0 0 0 0 0 0 0 0 0 0 0 1 1 1 1 1 2 2 2 3 2 2 2 3 2 1 0 0 0 0 0 0 0 0 0 0 0 1 1 2 2
0 0 0 0 0 0 0 0 0 0 0 0 0 0 0 0 1 1 1 1 2 2 2 2 2 2 1 0 0 0 0 0 0 0 0 0 0 0 0 0 0 1 1
0 0 0 0 0 0 0 0 0 0 0 1 0 0 0 0 0 1 1 1 1 2 2 1 1 1 1 0 0 0 0 0 0 0 0 0 0 0 0 0 0 0 0
0 0 0 0 0 0 0 1 0 0 1 1 1 1 0 0 0 0 0 1 1 1 1 1 1 1 0 0 0 0 0 0 0 0 0 0 0 0 0 0 0 0 0
0 0 0 0 0 0 0 1 1 0 0 1 1 1 1 0 0 0 0 0 1 1 1 1 1 1 0 0 0 0 0 0 0 0 0 0 0 0 0 0 0 0 0
0 0 0 0 0 0 0 0 0 0 0 1 1 1 1 1 0 0 0 0 0 1 1 1 1 1 0 0 0 0 0 0 0 0 0 0 0 0 0 0 0 0 0
0 0 0 0 1 1 0 0 0 0 0 1 1 1 1 0 0 0 0 0 0 0 0 1 1 1 0 0 0 0 0 0 0 0 0 0 0 0 0 0 0 0 0
0 0 0 1 1 1 1 1 0 0 0 0 0 0 0 0 0 0 0 0 0 0 0 0 0 1 1 0 0 0 0 0 0 0 0 0 0 0 0 0 0 0 0
1 1 1 1 1 1 1 0 0 0 0 0 0 0 0 0 0 0 0 0 0 0 0 0 0 1 1 1 0 0 0 0 0 0 0 0 0 0 0 0 0 0 0
1 1 1 1 1 1 0 0 0 0 0 0 0 0 0 0 0 0 0 0 0 0 0 0 0 0 1 0 0 0 0 0 0 0 0 0 0 0 0 0 0 0 0
1 1 1 1 1 1 1 1 0 0 0 0 0 0 0 0 0 0 0 0 0 0 0 0 0 0 0 0 0 0 0 0 0 0 0 0 0 0 0 0 0 0 0
Wind_Speed
5 5 5 5 6 7 7 6 6 6 5 3 3 3 3 4 4 4 5 6 7 7 8 8 8 8 8 9 11 10 11 10 8 8 9 10 11 12 11 11 11 12 12
5 5 5 5 6 6 7 7 7 6 6 4 3 2 3 4 3 4 4 5 6 7 7 8 8 8 7 10 10 10 9 9 7 7 6 7 8 9 11 10 10 11 10
4 4 4 4 4 4 5 4 5 5 5 4 4 3 3 4 3 3 3 4 6 7 7 8 8 8 9 8 9 9 11 10 9 8 7 7 8 6 6 9 9 9 8
2 2 2 2 2 2 2 3 4 4 4 5 5 5 4 4 4 4 3 5 5 6 6 7 7 8 8 8 10 9 9 10 9 8 9 10 8 6 6 6 8 9 9
2 2 2 2 2 1 1 2 3 4 4 5 5 6 6 4 4 4 4 5 5 5 6 6 7 7 8 9 10 10 10 9 10 9 8 9 9 11 10 9 8 7 8
4 4 5 4 4 3 3 3 4 4 5 6 7 7 7 6 6 6 5 5 4 4 5 6 6 8 8 8 9 9 11 10 11 10 9 9 8 9 10 11 9 8 6
6 7 7 7 6 6 5 5 5 5 6 7 8 8 8 8 8 8 6 6 6 5 5 6 7 7 7 8 9 9 10 11 12 11 10 10 10 10 10 10 9 9 6
10 9 9 9 8 8 7 6 6 6 6 6 7 8 8 8 7 7 8 7 6 6 6 7 7 8 9 9 8 9 10 9 11 13 13 10 10 10 10 10 9 8 7
11 12 12 12 11 11 10 9 8 7 7 7 7 7 8 9 9 9 9 8 7 6 7 7 8 8 9 9 9 9 10 10 11 11 12 11 10 10 9 9 10 9 8
11 11 11 11 11 11 10 10 10 9 9 8 8 7 8 8 9 10 10 9 9 8 8 8 8 8 8 9 9 10 9 10 10 9 10 10 9 8 8 9 9 9 8
11 11 11 11 11 11 11 10 10 10 10 10 9 9 9 9 9 9 10 10 10 9 9 8 8 8 8 8 8 9 9 10 9 9 9 10 10 7 7 7 7 7 7
10 10 11 11 11 11 11 11 11 11 11 11 10 10 10 10 10 10 10 10 10 10 10 9 9 8 8 8 8 9 9 9 9 8 8 8 6 6 6 5 5 5 6
10 10 11 11 11 12 12 11 11 11 11 11 12 11 11 11 11 11 11 10 11 11 10 10 9 9 8 7 7 7 7 7 7 7 7 6 5 4 3 3 3 3 5
10 11 11 11 11 11 12 12 12 12 12 12 12 12 12 12 12 12 11 11 11 11 11 11 10 9 8 7 6 6 5 5 5 5 5 5 3 2 1 1 3 4 6
11 12 12 12 12 12 12 12 13 12 12 12 12 12 12 12 12 12 12 12 11 11 11 11 11 10 8 6 5 5 4 4 4 3 3 4 3 4 2 3 4 6 6
13 14 14 14 14 14 14 14 14 14 13 14 14 13 12 13 12 13 12 12 11 11 10 11 11 11 8 4 2 6 5 3 3 2 2 1 3 6 7 8 8 7 8
16 17 17 16 16 16 16 16 16 15 15 15 15 14 14 14 13 13 13 13 12 11 10 11 12 11 8 8 7 6 6 4 1 0 0 2 4 5 7 10 12 12 11
19 19 18 18 18 18 17 17 17 17 17 16 16 15 15 15 14 14 14 13 11 10 9 10 11 11 9 11 9 7 7 4 3 2 3 4 5 6 8 10 11 10 10
19 19 19 20 19 19 18 18 18 18 18 17 17 16 16 16 16 15 14 13 12 11 10 9 10 11 9 12 11 9 6 5 5 4 4 5 8 8 8 11 12 11 10
19 19 20 21 20 19 18 19 19 19 18 18 17 17 16 17 17 16 15 13 11 11 10 9 9 10 9 12 13 11 7 6 6 5 5 6 8 8 6 10 11 12 10
21 21 21 19 19 19 19 19 19 19 19 18 18 17 17 17 17 16 14 13 12 11 11 9 8 9 9 11 14 13 7 7 7 7 6 7 10 8 5 6 9 11 10
22 22 20 19 18 19 19 20 20 19 19 18 18 17 17 16 15 15 14 13 12 12 11 9 8 7 8 10 13 13 10 5 7 7 7 9 11 8 6 7 11 10 8
22 21 21 21 19 19 19 20 19 19 18 18 18 17 17 16 15 15 15 13 11 10 9 7 6 6 6 8 12 14 10 6 5 6 12 14 13 11 8 11 11 8 6
22 20 21 21 20 19 19 19 19 18 18 18 17 16 16 15 15 12 12 11 10 10 8 7 6 5 5 7 9 11 10 9 8 9 14 14 10 7 11 10 8 6 6
21 20 20 21 22 20 19 19 18 17 18 18 16 15 14 14 13 12 11 12 11 10 9 7 6 6 7 8 12 12 12 12 11 12 11 11 11 10 10 10 8 7 7
22 21 21 22 22 20 20 19 17 16 17 15 15 12 11 10 10 11 11 11 13 11 11 11 10 7 8 10 12 13 13 14 16 14 12 11 11 11 11 10 9 8 8
Wind_Direction
147 152 152 157 162 163 168 178 185 182 193 203 225 243 259 272 280 285 299 297 296 296 289 287 290 284 278 276 274 270 268 263 258 259 260 256 251 248 250 250 255 252 249
158 151 149 151 152 157 168 175 184 186 198 200 227 258 289 286 295 301 305 299 302 302 293 294 291 288 284 276 275 272 269 266 252 248 260 266 258 243 242 240 242 251 249
157 149 150 149 149 150 164 175 185 192 205 211 222 229 238 251 257 281 284 301 304 299 300 298 295 296 286 283 284 279 273 271 266 248 246 253 256 266 245 239 242 243 246
128 128 141 135 143 151 166 185 197 206 210 218 231 245 264 282 300 288 296 298 291 295 298 297 298 295 292 290 282 281 281 273 269 259 244 248 264 265 264 245 239 238 238
58 48 33 21 10 335 249 226 226 230 232 240 239 245 255 268 276 282 282 284 286 282 287 294 297 296 292 294 293 292 283 278 272 269 264 256 252 247 250 257 249 240 237
40 34 26 19 7 348 320 287 264 256 250 247 249 252 263 268 275 276 282 278 281 277 281 290 293 290 293 294 291 288 280 276 276 271 263 257 252 246 245 249 250 247 246
33 28 21 13 5 356 343 323 302 283 270 259 254 252 255 258 258 265 268 275 284 283 288 292 290 290 291 289 289 284 283 279 274 269 264 257 253 255 251 249 249 246 246
34 28 22 15 9 6 358 349 336 317 303 285 275 267 261 259 260 255 269 271 277 287 295 283 282 287 288 288 288 284 279 276 273 271 269 264 256 250 246 244 243 242 237
36 31 27 22 17 13 10 3 356 346 337 320 304 286 277 272 271 267 256 262 263 271 270 273 278 283 286 290 291 285 286 284 278 274 269 262 259 252 249 244 237 234 232
34 30 27 22 17 13 10 6 2 355 347 337 324 311 298 287 277 269 267 265 264 262 263 266 273 278 283 287 289 291 292 289 284 281 278 272 264 255 247 242 235 230 231
24 20 18 15 11 8 6 3 359 356 350 342 331 321 313 304 292 278 270 264 259 256 255 259 266 273 279 285 289 293 297 293 292 288 280 274 270 260 249 240 232 224 215
8 7 5 1 358 356 353 352 350 348 345 340 331 324 319 313 304 295 285 273 261 254 251 254 260 267 274 282 290 296 303 303 302 300 293 285 275 261 249 234 223 211 196
353 354 353 349 346 343 341 339 337 336 335 333 328 325 323 319 312 304 296 283 269 258 252 249 253 261 269 276 285 292 300 305 306 307 303 295 286 270 252 220 198 185 170
341 340 337 334 333 329 327 325 325 325 324 323 320 320 319 318 314 307 301 291 277 264 254 248 248 254 259 264 273 283 295 303 312 319 319 312 299 289 238 161 144 143 141
325 324 321 319 317 316 315 315 315 315 315 312 311 311 311 313 313 312 306 298 285 271 259 251 246 245 246 249 260 265 273 292 306 325 345 359 22 30 54 111 128 130 131
314 315 315 314 314 313 312 314 312 310 307 304 303 303 303 306 309 311 309 303 292 280 266 253 247 241 239 165 223 269 259 272 287 315 2 54 72 73 75 80 88 107 127
312 314 314 313 312 309 309 307 308 306 303 301 301 301 302 302 305 307 307 304 300 289 273 256 249 241 221 171 198 242 259 246 250 226 130 91 100 116 109 94 87 79 80
313 312 311 309 308 307 306 304 303 302 300 298 297 298 298 298 301 302 302 302 300 293 282 265 252 243 215 181 196 215 234 221 186 159 129 120 124 114 115 110 100 95 86
309 308 307 307 306 303 303 301 299 298 297 296 296 297 297 297 296 295 296 297 295 289 282 270 255 242 216 186 191 204 209 188 170 155 134 132 127 114 115 114 108 102 92
306 305 304 303 302 303 303 299 296 295 296 297 296 295 294 292 291 290 290 290 290 286 281 272 257 242 225 188 189 201 202 178 164 150 138 119 123 133 133 128 123 119 117
303 303 302 301 301 300 299 295 293 293 295 295 294 290 289 287 284 282 281 282 283 283 279 269 259 245 226 188 188 198 205 179 171 160 155 131 125 133 127 132 127 126 130
304 304 302 299 298 297 295 291 290 292 293 292 290 287 285 284 283 282 279 278 278 278 273 264 257 242 221 197 190 194 209 200 174 164 149 129 132 129 125 115 117 129 147
304 303 300 299 297 295 293 291 291 293 291 289 286 284 283 281 279 277 275 273 270 267 267 260 254 239 214 188 181 186 190 195 182 143 115 126 135 135 124 121 135 160 161
304 303 302 299 298 297 294 291 291 289 287 285 284 282 280 278 277 274 271 269 269 267 262 256 251 243 217 192 179 179 176 168 159 133 120 128 145 145 123 141 167 181 150
304 303 301 299 298 297 295 292 290 289 286 284 280 279 277 276 277 273 269 269 267 265 265 263 252 238 222 199 183 177 177 178 168 150 151 157 160 161 158 162 164 155 148
305 303 301 300 299 298 294 292 290 286 284 281 278 276 275 276 276 276 274 259 253 250 234 237 244 243 229 189 178 183 172 162 154 162 166 168 170 168 164 162 160 161 157